Location: Unspecified
(0.0000°N, 0.0000°E)
Time: 08:17:38
(UTC+00:00)

Hubble Space Telescope - Pass Details

Date: 24 November 2023
Orbit: 518 x 522 km, 28.5° (Epoch: 08 December)

Event Time Altitude Azimuth Distance (km) Brightness Sun altitude
Exits shadow 03:20:47 13° 141° (SE) 1,541 3.7 -33.8°
Drops below altitude 10° 03:21:20 10° 138° (SE) 1,742 4.1 -33.7°
Sets 03:23:40 0° 131° (SE) 2,630 5.3 -33.2°
